Regional Weather Roundup
Issued by NWS Austin/San Antonio, TX

Home | Current Version | Previous Version | Text Only | Print | Product List | Glossary On
Versions: 1 2 3 4 5 6 7 8 9 10 11 12 13 14 15 16 17 18 19 20 21 22 23 24 25 26 27 28 29 30 31 32 33 34 35 36 37 38 39 40 41 42 43 44 45 46 47 48 49 50
000
ASUS44 KEWX 271802
RWREWX
SOUTH TEXAS REGIONAL WEATHER ROUNDUP
NATIONAL WEATHER SERVICE AUSTIN/SAN ANTONIO TX
100 PM CDT THU APR 27 2017

NOTE: "FAIR" INDICATED FEW OR NO CLOUDS BELOW 12,000 FEET WITH NO
SIGNIFICANT WEATHER AND/OR OBSTRUCTIONS TO VISIBILITY.

* - THESE STATIONS ARE NOT NWS OR FAA STATIONS...AND ARE NOT SUBJECT
    TO NWS AND FAA QUALITY CONTROL.

TXZ171-172-183>190-271900-
TEXAS HILL COUNTRY AND EDWARDS PLATEAU

CITY           SKY/WX    TMP DP  RH WIND       PRES   REMARKS
JUNCTION       SUNNY     79  39  23 S17G28    29.75F
6HR MIN TEMP:  47; 6HR MAX TEMP:  80;

*LLANO         MOSUNNY   77  46  33 S9        29.80F
BURNET         SUNNY     74  44  34 S8G18     29.80F
6HR MIN TEMP:  50; 6HR MAX TEMP:  74;

*HORSESHOE BAY SUNNY     77  44  30 S9G18     29.79F
6HR MIN TEMP:  51; 6HR MAX TEMP:  77;

*KERRVILLE     SUNNY     76  48  38 S12G17    29.80F
6HR MIN TEMP:  44; 6HR MAX TEMP:  76;

*FREDERICKSBRG SUNNY     74  41  30 S9G18     29.80F
*ROCKSPRINGS   LGT RAIN  73  46  38 S13G18    29.82F
*BOERNE STAGE  SUNNY     72  43  35 S16       29.80F
*CASTROVILLE   SUNNY     77  43  29 S6        29.82F
HONDO          SUNNY     77  47  34 S15       29.79F
6HR MIN TEMP:  51; 6HR MAX TEMP:  77;

*UVALDE        SUNNY     76  49  38 SE10G17   29.79F
6HR MIN TEMP:  48; 6HR MAX TEMP:  76;

DEL RIO        CLOUDY    77  44  30 SE18G24   29.74F
6HR MIN TEMP:  57; 6HR MAX TEMP:  78;

LAUGHLIN AFB   NOT AVBL
CARRIZO SPRGS  SUNNY     81  46  30 S7        29.77F
*EAGLE PASS    NOT AVBL
$$

TXZ173-191>194-202-209-217>225-228-271900-
CENTRAL AND SOUTH CENTRAL TEXAS

CITY           SKY/WX    TMP DP  RH WIND       PRES   REMARKS
GEORGETOWN     SUNNY     73  45  35 S12       29.79F
AUSTIN/BERGSTM MOSUNNY   78  46  32 S14       29.77F
6HR MIN TEMP:  47; 6HR MAX TEMP:  78;

AUSTIN/MABRY   SUNNY     78  48  34 S7        29.80F
6HR MIN TEMP:  55; 6HR MAX TEMP:  78;

*AUSTIN/EXEC   FAIR      73  46  38 S10       29.80F
*LAGO VISTA    SUNNY     75  44  32 S5        29.81F
6HR MIN TEMP:  52; 6HR MAX TEMP:  75;

SAN MARCOS     SUNNY     75  48  38 S9        29.82F
NEW BRAUNFELS  SUNNY     77  47  34 S9        29.79F
6HR MIN TEMP:  50; 6HR MAX TEMP:  77;

RANDOLPH AFB   MOSUNNY   76  46  33 S12       29.79F
6HR MIN TEMP:  52; 6HR MAX TEMP:  76;

PT SAN ANTONIO SUNNY     77  46  33 S12       29.78F
6HR MIN TEMP:  56; 6HR MAX TEMP:  77;

SAN ANTONIO    PTSUNNY   75  49  39 S7        29.81F
6HR MIN TEMP:  53; 6HR MAX TEMP:  75;

STINSON FIELD  LGT RAIN  78  47  33 SE10G18   29.79F
6HR MIN TEMP:  54; 6HR MAX TEMP:  78; 6HR PCP: TRACE;

*LA GRANGE     SUNNY     75  52  44 SE6       29.78F
6HR MIN TEMP:  53; 6HR MAX TEMP:  75;

*GIDDINGS      SUNNY     74  47  39 SE9       29.81S
6HR MIN TEMP:  49; 6HR MAX TEMP:  74;

*GONZALES      SUNNY     77  50  39 MISG      29.79F
6HR MIN TEMP:  50; 6HR MAX TEMP:  77;

$$

TXZ163>164-176>182-195>201-210>213-226-227-235-271900-
SOUTHEAST TEXAS

CITY           SKY/WX    TMP DP  RH WIND       PRES   REMARKS
COLLEGE STN    SUNNY     75  48  38 VRB7      29.79F
6HR MIN TEMP:  51; 6HR MAX TEMP:  75;

*BRYAN         SUNNY     74  48  40 E9        29.80F
6HR MIN TEMP:  47; 6HR MAX TEMP:  74;

*CALDWELL      NOT AVBL
*CROCKETT      SUNNY     70  50  49 SE5       29.85F
*BRENHAM       MOSUNNY   74  51  44 SE6       29.81F
6HR MIN TEMP:  51; 6HR MAX TEMP:  75;

HUNTSVILLE     SUNNY     73  45  36 E5        29.81F
6HR MIN TEMP:  52; 6HR MAX TEMP:  73;

CONROE         SUNNY     74  49  41 SE5       29.81F
6HR MIN TEMP:  45; 6HR MAX TEMP:  74;

HOUSTON BUSH   MOSUNNY   75  51  43 E7        29.81F
6HR MIN TEMP:  53; 6HR MAX TEMP:  75;

HOUSTON HOBBY  MOSUNNY   73  51  46 MISG      29.80F
6HR MIN TEMP:  56; 6HR MAX TEMP:  73;

*HOUSTON SW AP SUNNY     75  51  43 SE3       29.80F
6HR MIN TEMP:  54; 6HR MAX TEMP:  75;

PEARLAND       SUNNY     75  50  41 E6        29.82F
6HR MIN TEMP:  57; 6HR MAX TEMP:  76;

HOUSTON HOOKS  SUNNY     74  49  41 SE7       29.81F
6HR MIN TEMP:  51; 6HR MAX TEMP:  74;

ELLINGTON FLD  SUNNY     75  50  41 E7        29.83F
SUGAR LAND     SUNNY     76  50  40 E10G17    29.79F
6HR MIN TEMP:  58; 6HR MAX TEMP:  76;

*HOUSTON EXEC  SUNNY     73  48  40 SE6       29.81F
*CLEVELAND MUN SUNNY     73  54  51 SE3       29.82F
6HR MIN TEMP:  48; 6HR MAX TEMP:  73;

*WHARTON       SUNNY     76  47  35 E7        29.80F
6HR MIN TEMP:  52; 6HR MAX TEMP:  76;

*COLUMBUS      FAIR      73  46  37 SE6       29.80F
6HR MIN TEMP:  52; 6HR MAX TEMP:  74;

*EAGLE LAKE    CLEAR     75  52  43 E6        29.79F
6HR MIN TEMP:  54; 6HR MAX TEMP:  76;

$$

TXZ214>216-236>238-271900-
THE UPPER TEXAS COAST

CITY           SKY/WX    TMP DP  RH WIND       PRES   REMARKS
*ORANGE        SUNNY     73  55  53 NE5       29.84F
6HR MIN TEMP:  51; 6HR MAX TEMP:  73;

PORT ARTHUR    SUNNY     75  51  43 SE7       29.82F
6HR MIN TEMP:  53; 6HR MAX TEMP:  75;

GALVESTON      SUNNY     75  59  57 E12       29.83F
6HR MIN TEMP:  60; 6HR MAX TEMP:  75;

ANGLETON       SUNNY     77  60  55 E12       29.81F
6HR MIN TEMP:  58; 6HR MAX TEMP:  77;

*BAY CITY      SUNNY     77  55  45 E10       29.79F
PALACIOS       SUNNY     77  53  43 SE16      29.79F
6HR MIN TEMP:  54; 6HR MAX TEMP:  78;

$$

TXZ229>234-239>247-271900-
TEXAS COASTAL BEND AND RIO GRANDE PLAINS

CITY           SKY/WX    TMP DP  RH WIND       PRES   REMARKS
VICTORIA       SUNNY     78  51  38 S8        29.81F
6HR MIN TEMP:  56; 6HR MAX TEMP:  78;

*BEEVILLE      SUNNY     82  60  47 S9        29.79F
6HR MIN TEMP:  55; 6HR MAX TEMP:  82;

ROCKPORT       MOSUNNY   79  63  57 E10       29.78F
6HR MIN TEMP:  65; 6HR MAX TEMP:  79;

*PORT ARANSAS  PTSUNNY   76  62  62 E9        29.78F
6HR MIN TEMP:  69; 6HR MAX TEMP:  76;

*PORT LAVACA   SUNNY     74  62  66 E12       29.81F
6HR MIN TEMP:  59; 6HR MAX TEMP:  74;

*INGLESIDE     PTSUNNY   80  64  58 E9G22     29.79F
CORPUS CHRISTI PTSUNNY   81  65  58 SE12G18   29.77F
6HR MIN TEMP:  65; 6HR MAX TEMP:  82;

CORPUS NAS     PTSUNNY   79  66  64 E13       29.79S
*ROBSTOWN      MOSUNNY   83  64  53 SE15G21   29.78F
6HR MIN TEMP:  64; 6HR MAX TEMP:  83;

ALICE          SUNNY     84  64  50 E13G21    29.76F
6HR MIN TEMP:  58; 6HR MAX TEMP:  85;

KINGSVILLE NAS MOSUNNY   83  69  62 SE15G21   29.76F
6HR MIN TEMP:  61; 6HR MAX TEMP:  84;

COTULLA        SUNNY     84  42  22 SE8       29.78F
6HR MIN TEMP:  55; 6HR MAX TEMP:  85;

*FAITH RANCH   SUNNY     84  46  26 SE8G17    29.76F
LAREDO         SUNNY     84  62  47 SE16      29.75F
6HR MIN TEMP:  62; 6HR MAX TEMP:  84;

$$

TXZ248>255-271900-
DEEP SOUTH TEXAS

CITY           SKY/WX    TMP DP  RH WIND       PRES   REMARKS
BROWNSVILLE    CLOUDY    85  71  63 E9G20     29.76F HX  90
6HR MIN TEMP:  76; 6HR MAX TEMP:  86;

PORT ISABEL    CLOUDY    81  71  71 NE14      29.76F
6HR MIN TEMP:  76; 6HR MAX TEMP:  82;

*SOUTH PADRE   NOT AVBL
HARLINGEN      PTSUNNY   85  72  65 E12G23    29.75F HX  91
6HR MIN TEMP:  72; 6HR MAX TEMP:  85;

*HEBBRONVILLE  SUNNY     81  61  51 SE12G20   29.78F
6HR MIN T



USA.gov is the U.S. government's official web portal to all federal, state and local government web resources and services.